User: anonymous   Login
Location: Unspecified
(0.0000°N, 0.0000°E)
Time: 18:49:56
(UTC+00:00)
Language:

Kosmos-1506 - Orbit

View from above orbital plane
View from above orbital plane
View from above satellite
View from above satellite

Ground track
Ground track

The orbit data is extracted from the following two-line orbital elements,

1 14450U 83108A   17145.80624550 +.00000064 +00000-0 +50265-4 0  9994
2 14450 082.9320 212.8836 0041560 250.8265 248.0096 13.76217723502436
Epoch (UTC): 25 May 2017 19:20:59
Eccentricity: 0.0041560
inclination: 82.9320°
perigee height: 947 km
apogee height: 1008 km
right ascension of ascending node: 212.8836°
argument of perigee: 250.8265°
revolutions per day: 13.76217723
mean anomaly at epoch: 248.0096°
orbit number at epoch: 50243

The dashed part of the orbit path shows where the satellite is in the earth's shadow,  

DLR